Leadville, CO

10:35 AM MDT on August 23, 2017 (GMT -0600)
Lake County

Weather History for KLXV - May, 2013

Change the Weather History Date:

Saturday, May 25, 2013

  Actual Average Record
Temperature  
Mean Temperature 47 °F -  
Max Temperature 66 °F 58 °F 70 °F (2006)
Min Temperature 27 °F 29 °F 21 °F (2002)
Degree Days  
Heating Degree Days 18 22  
Month to date heating degree days 653 629  
Since 1 July heating degree days 10623 10630  
Cooling Degree Days 0 0  
Month to date cooling degree days 0 0  
Year to date cooling degree days 0 0  
Moisture  
Dew Point 10 °F    
Average Humidity 38    
Maximum Humidity 69    
Minimum Humidity 6    
Precipitation  
Precipitation 0.00 in 0.02 in 0.28 in (1999)
Month to date precipitation 1.67 0.65  
Year to date precipitation 7.18 3.98  
Sea Level Pressure  
Sea Level Pressure 29.87 in    
Wind  
Wind Speed 8 mph (WSW)    
Max Wind Speed 24 mph    
Max Gust Speed 30 mph    
Visibility 10 miles    
Events      
T = Trace of Precipitation, MM = Missing Value Source: NWS Daily Summary

Daily Weather History Graph

Daily Weather History Graph

Search for Another Location

Airport or City:

Trip Planner

Search our weather history database for the weather conditions in past years. The results will help you decide how hot, cold, wet, or windy it might be!

Date:

Astronomy

May. 25, 2013 Rise Set
Actual Time 5:44 AM MDT 8:20 PM MDT
Civil Twilight 5:13 AM MDT 8:51 PM MDT
Nautical Twilight 4:34 AM MDT 9:30 PM MDT
Astronomical Twilight 3:51 AM MDT 10:14 PM MDT
Moon 9:11 PM MDT (5/25) 6:13 AM MDT (5/25)
Length of Visible Light 15h 38m
Length of Day
14h 36m
Waxing Gibbous, 99% of the Moon is Illuminated
May 25
Waxing Gibbous
May 31
Last Quarter
Jun 8
New
Jun 16
First Quarter
Jun 23
Full

Hourly Weather History & Observations

Time (MDT) Temp. Windchill Dew Point Humidity Pressure Visibility Wind Dir Wind Speed Gust Speed Precip Events Conditions
12:53 AM 37.9 °F - 16.0 °F 41% 29.88 in 10.0 mi Calm Calm - N/A   Clear
1:53 AM 32.0 °F - 21.0 °F 64% 29.90 in 10.0 mi Calm Calm - N/A   Clear
2:53 AM 32.0 °F - 19.0 °F 59% 29.88 in 10.0 mi Calm Calm - N/A   Clear
3:53 AM 33.1 °F - 18.0 °F 54% 29.86 in 10.0 mi Calm Calm - N/A   Clear
4:53 AM 28.9 °F 25.2 °F 19.0 °F 67% 29.89 in 10.0 mi NNE 3.5 mph - N/A   Clear
5:53 AM 34.0 °F 31.0 °F 17.1 °F 50% 29.88 in 10.0 mi East 3.5 mph - N/A   Clear
6:53 AM 35.1 °F - 19.0 °F 52% 29.91 in 10.0 mi Calm Calm - N/A   Clear
7:53 AM 43.0 °F 41.3 °F 21.0 °F 42% 29.87 in 10.0 mi North 3.5 mph - N/A   Clear
8:53 AM 50.0 °F - 12.0 °F 22% 29.86 in 10.0 mi South 11.5 mph - N/A   Clear
9:53 AM 54.0 °F - 3.9 °F 13% 29.88 in 10.0 mi South 12.7 mph - N/A   Clear
10:53 AM 59.0 °F - -4.0 °F 8% 29.85 in 10.0 mi West 12.7 mph 21.9 mph N/A   Clear
11:53 AM 60.1 °F - 1.0 °F 9% 29.85 in 10.0 mi SSW 13.8 mph - N/A   Clear
12:01 PM 59.0 °F - -0.4 °F 9% 30.29 in 10.0 mi South 17.3 mph 21.9 mph N/A   Clear
12:53 PM 63.0 °F - -7.1 °F 6% 29.81 in 10.0 mi South 24.2 mph 29.9 mph N/A   Clear
1:53 PM 63.0 °F - -8.0 °F 6% 29.86 in 10.0 mi SSW 19.6 mph 26.5 mph N/A   Clear
2:53 PM 62.1 °F - -4.0 °F 7% 29.86 in 10.0 mi WSW 16.1 mph 20.7 mph N/A   Clear
3:53 PM 64.9 °F - 1.0 °F 8% 29.83 in 10.0 mi Variable 6.9 mph 28.8 mph N/A   Clear
4:53 PM 64.9 °F - 3.0 °F 9% 29.83 in 10.0 mi WNW 15.0 mph 23.0 mph N/A   Clear
5:53 PM 63.0 °F - 3.9 °F 10% 29.80 in 10.0 mi West 12.7 mph 17.3 mph N/A   Clear
6:53 PM 62.1 °F - 7.0 °F 11% 29.80 in 10.0 mi West 11.5 mph - N/A   Clear
7:53 PM 55.9 °F - 12.0 °F 18% 29.81 in 10.0 mi NW 5.8 mph - N/A   Clear
8:53 PM 50.0 °F - 17.1 °F 27% 29.82 in 10.0 mi NNE 4.6 mph - N/A   Clear
9:53 PM 46.9 °F - 17.1 °F 30% 29.83 in 10.0 mi ENE 4.6 mph - N/A   Clear
10:53 PM 42.1 °F 39.2 °F 19.0 °F 40% 29.83 in 10.0 mi ENE 4.6 mph - N/A   Clear
11:53 PM 37.9 °F 35.5 °F 19.0 °F 47% 29.85 in 10.0 mi NNW 3.5 mph - N/A   Clear